Wind_Speed
47 46 47 45 43 41 38 37 38 38 35 35 35 33 33 34 30 28 35 40 36 34 34 30 33 39 37 34 28 22 20 22 24 23 23 24 23 22 22 22 23 20 20 20 18 17 16 15 16 17 17 17 16 16 15 14 13 14 14 14 14 15 15 16 17 17 17 18 19 20 22 24 26 26 26 26 25 26 28 30 31 30 28 28 29 28
48 48 47 44 43 42 39 39 39 38 37 36 37 37 36 34 29 26 34 40 38 35 30 29 34 36 34 35 33 27 24 22 23 23 22 23 23 23 24 23 22 20 20 21 19 17 15 16 16 17 17 16 16 15 14 14 14 15 15 14 15 15 15 16 17 17 18 19 20 21 22 25 26 27 27 27 27 27 28 29 30 29 29 29 29 27
50 50 47 44 44 42 41 42 40 40 42 40 39 36 35 34 30 33 41 41 38 31 24 27 34 34 32 33 33 31 30 27 26 25 24 22 22 23 24 23 22 21 21 21 19 17 16 16 16 16 17 16 15 15 15 15 15 15 15 15 15 15 16 17 17 18 19 20 21 22 23 25 27 28 29 29 28 28 28 29 30 28 28 29 28 27
51 49 46 45 45 44 44 42 40 43 45 41 38 35 33 32 30 37 45 42 38 30 30 34 35 30 30 30 30 31 31 29 27 27 27 25 23 23 24 23 23 22 22 21 18 17 16 15 16 17 17 16 15 15 15 15 15 16 16 16 16 16 17 17 17 18 18 19 20 21 23 25 27 29 30 30 30 29 29 30 30 29 28 28 28 28
49 47 46 46 46 46 45 42 42 46 45 39 36 33 29 26 29 39 46 42 40 35 33 37 36 32 32 29 28 29 30 29 28 28 29 28 26 25 25 24 23 23 22 20 17 15 16 16 16 17 17 16 15 15 15 15 15 15 16 16 16 16 16 17 18 18 18 18 20 21 23 25 27 29 31 31 31 30 30 31 31 31 29 27 27 29
48 46 46 47 47 46 44 43 45 46 43 38 38 35 27 24 31 40 44 42 41 40 38 37 36 35 37 34 29 29 29 29 30 31 30 29 29 27 25 24 24 23 21 18 15 15 16 17 18 18 18 16 15 15 15 15 15 15 16 16 16 16 17 18 19 19 19 19 21 23 24 26 27 28 31 32 32 32 31 31 31 31 31 29 28 30
48 48 48 47 46 46 45 45 47 44 41 39 40 38 29 25 28 29 37 44 42 40 40 41 37 33 37 37 32 28 28 29 32 32 30 29 29 27 25 23 23 21 19 16 15 16 17 18 19 19 18 17 15 15 15 16 16 16 16 16 15 17 17 18 19 20 20 21 22 23 24 26 27 28 30 32 33 33 32 32 32 32 32 30 29 30
50 50 49 48 47 49 47 45 46 43 40 37 39 40 33 26 26 25 29 37 37 35 35 39 35 29 35 38 33 29 27 29 33 32 31 30 29 26 24 22 21 19 17 16 16 16 17 18 19 19 17 16 15 16 16 16 17 16 16 16 16 17 17 17 19 20 21 22 23 23 25 26 28 29 30 32 34 34 33 33 33 34 33 32 31 31
51 50 50 51 50 49 45 44 44 44 40 31 32 42 38 28 26 27 27 27 28 29 31 35 33 29 34 37 35 33 28 29 33 33 32 30 28 25 22 20 20 19 17 16 16 17 17 17 17 17 16 16 16 16 17 17 16 16 16 16 17 18 18 18 20 21 22 22 23 24 25 27 28 30 31 32 34 34 33 33 34 34 34 33 33 32
49 49 50 53 50 45 44 44 43 45 39 24 23 39 41 32 25 24 25 25 25 27 29 32 33 33 35 36 36 35 30 29 31 31 31 29 27 24 22 21 21 19 17 16 16 16 16 16 16 16 16 16 16 16 16 16 15 16 16 16 18 18 19 20 21 23 23 24 24 25 26 27 28 30 31 32 34 35 34 33 33 34 34 34 33 32
44 48 48 52 50 44 44 44 43 44 37 22 20 34 42 36 26 19 21 24 26 29 31 30 30 33 35 35 34 33 31 30 30 30 30 29 27 24 23 23 21 19 18 16 16 16 15 16 16 16 16 16 16 15 15 15 15 16 16 17 18 19 20 21 22 24 25 25 26 26 27 28 29 30 32 33 34 35 35 33 32 33 33 34 33 32
42 51 51 52 49 45 45 42 42 43 35 23 19 27 36 39 31 21 20 23 25 29 32 30 29 32 35 36 33 34 34 30 29 29 30 29 26 25 24 23 21 19 18 16 16 16 16 16 16 16 16 15 15 15 15 16 16 16 17 18 19 20 22 23 23 25 26 27 28 28 29 30 31 31 32 33 34 35 35 33 31 31 31 33 33 31
45 53 54 51 46 45 46 38 36 41 36 26 25 27 34 41 39 32 26 26 27 28 30 30 28 29 34 37 36 36 36 31 29 29 29 29 26 25 25 23 22 19 17 16 16 16 17 17 17 16 16 15 15 15 15 16 16 17 18 19 20 21 23 24 25 26 27 28 30 30 30 31 31 32 33 34 35 36 35 33 31 31 31 32 33 30
45 47 51 52 46 45 48 36 31 42 40 30 30 35 39 41 43 42 35 31 32 29 26 25 25 28 35 43 42 38 35 32 28 27 28 29 27 26 25 23 21 19 17 17 16 17 18 18 18 17 17 16 16 16 16 16 17 18 19 20 21 22 24 25 26 27 28 29 30 30 31 32 33 34 34 36 37 37 36 35 32 30 30 33 33 32
47 45 49 53 48 46 48 38 31 40 45 39 35 35 38 39 43 46 38 33 33 28 24 25 27 33 39 46 45 38 35 31 28 28 29 29 28 26 25 23 21 20 18 17 17 18 19 19 19 18 18 18 17 17 17 17 18 19 20 21 23 24 25 26 27 28 29 29 29 30 31 33 34 35 36 37 37 37 37 36 34 31 29 31 33 32
51 48 46 48 49 47 46 40 33 35 40 42 38 33 36 37 37 41 37 30 27 25 26 31 33 38 40 43 42 37 35 32 29 31 31 29 28 27 26 24 22 20 18 17 18 19 19 20 20 20 20 19 19 19 18 19 19 20 21 22 24 25 26 27 27 27 28 29 30 31 32 33 35 36 38 38 38 36 36 36 35 33 30 29 31 32
50 46 42 43 46 47 46 41 35 34 37 41 41 36 36 34 28 33 38 33 26 25 30 35 37 39 40 40 41 39 36 34 32 33 32 30 29 28 26 24 22 20 19 18 19 20 20 21 21 21 21 20 20 19 19 19 20 21 22 23 24 25 26 27 27 28 29 30 32 33 34 35 36 37 38 38 38 36 35 35 33 33 33 30 30 32
43 38 39 44 44 47 50 43 32 32 37 38 42 39 33 31 26 24 32 35 30 27 32 38 39 39 38 39 40 39 38 37 35 34 32 31 29 28 26 24 22 21 20 20 20 21 22 22 22 23 22 21 21 20 19 20 21 22 23 24 25 26 27 27 28 29 30 32 34 35 35 36 36 36 37 37 38 36 35 35 34 34 34 31 29 30
37 30 31 40 44 44 49 47 33 31 37 32 34 38 31 31 32 24 26 35 37 34 33 36 38 37 37 38 38 38 39 39 37 34 33 31 29 28 27 25 23 22 21 22 22 22 23 23 24 23 23 22 21 20 20 21 22 23 23 24 26 27 28 29 29 30 31 32 33 33 33 34 34 35 35 36 37 37 36 36 35 34 33 31 30 30
36 31 25 31 39 38 44 51 39 31 38 32 27 35 33 29 32 28 26 31 36 37 36 34 35 35 35 37 38 37 36 36 36 36 33 31 29 28 28 26 24 24 24 24 23 23 24 24 24 24 23 22 21 21 21 22 22 23 24 25 27 28 29 29 30 31 31 31 31 30 30 32 32 33 34 35 37 38 38 37 36 34 34 32 30 28
34 33 28 28 35 38 42 51 44 35 41 36 24 32 36 28 27 29 27 27 29 32 34 36 36 33 33 35 38 38 36 34 36 37 34 32 30 30 29 28 27 27 26 25 25 25 24 24 25 24 23 22 22 22 22 22 23 24 25 26 27 28 29 30 30 30 30 29 28 28 29 29 31 32 33 35 37 38 38 37 35 33 34 33 28 26
32 33 30 26 32 41 44 46 45 39 38 33 24 28 32 27 26 31 28 25 27 26 26 33 37 35 34 34 35 37 36 34 35 35 34 34 32 32 31 30 29 29 27 27 26 26 25 25 25 24 24 23 22 22 22 23 24 24 26 27 28 28 29 29 29 29 29 28 28 28 28 28 29 30 32 33 35 36 35 34 33 32 32 32 29 28
32 32 30 24 26 36 41 41 40 35 32 33 32 28 27 26 26 29 26 23 24 24 22 29 36 38 39 36 32 32 33 34 34 33 34 34 33 33 32 31 31 30 29 28 28 27 27 26 25 24 24 23 23 23 23 24 25 25 26 27 28 28 28 29 29 29 29 28 28 27 27 27 27 28 30 31 32 33 32 31 31 30 29 30 29 30
33 32 29 25 24 28 32 34 36 34 29 34 39 31 25 27 27 26 24 23 24 24 23 27 33 36 38 37 32 30 31 33 33 34 34 34 34 34 33 32 32 31 30 30 29 28 27 26 25 24 24 23 23 24 24 24 25 26 26 27 27 28 28 29 29 29 28 27 26 26 26 26 26 27 27 27 28 30 30 29 28 27 27 27 26 28
33 32 30 27 27 28 29 31 36 37 32 33 41 38 28 25 27 27 24 24 29 28 25 26 28 30 33 34 33 32 32 32 31 32 34 33 34 34 33 33 32 32 31 30 29 29 27 26 25 24 23 24 24 24 24 25 25 26 26 27 27 28 29 29 30 29 27 25 25 26 26 26 26 26 26 25 25 25 26 27 27 25 24 24 24 26
32 33 33 28 28 32 35 35 37 40 36 30 35 41 35 25 26 30 26 23 28 30 27 28 28 28 29 31 32 31 31 32 31 31 32 33 34 34 33 33 32 32 31 30 29 28 26 25 24 24 24 24 24 24 24 25 25 26 26 26 27 28 28 28 28 26 25 25 25 25 25 25 26 26 26 25 23 22 23 24 24 23 20 20 22 24
34 37 35 28 27 32 33 31 31 37 38 32 30 35 36 28 26 30 27 22 25 26 26 31 34 34 33 31 30 28 29 30 31 31 32 32 32 33 33 33 32 31 30 29 28 27 25 25 24 24 24 24 24 24 25 25 25 25 26 26 26 26 26 26 26 26 25 25 25 25 25 25 26 26 26 25 24 22 21 21 22 21 18 15 15 18
36 39 37 31 28 30 31 29 29 33 36 35 30 28 31 30 27 29 29 27 27 26 25 29 35 38 37 34 30 28 28 28 29 30 31 31 32 32 32 31 30 30 29 27 27 26 26 25 24 24 24 24 25 25 25 25 25 25 25 24 24 24 24 25 26 26 26 25 25 25 25 25 25 25 25 25 25 23 22 21 20 20 19 17 14 13
36 36 35 31 31 33 34 31 29 28 30 33 32 29 32 33 29 30 34 32 29 28 28 28 31 34 35 33 30 28 28 28 28 29 30 30 31 31 30 30 29 28 27 26 26 26 26 25 25 25 25 25 26 26 26 26 26 25 25 25 25 25 26 27 27 28 27 26 25 25 24 24 24 24 24 24 24 23 22 22 21 20 20 19 17 16
36 37 35 32 31 32 33 31 29 28 29 31 34 33 34 34 30 32 37 35 30 29 29 27 26 29 31 31 29 27 26 26 27 28 28 29 29 29 29 28 27 27 26 26 27 27 26 26 26 26 26 26 27 27 27 27 27 27 27 27 28 28 28 28 28 29 28 26 25 24 24 23 23 23 23 23 24 23 22 22 22 22 21 20 19 19
36 37 37 34 31 30 31 31 31 31 29 30 35 36 36 35 33 33 35 35 33 29 25 23 22 24 26 27 26 25 24 24 25 26 26 26 27 27 27 26 25 26 26 27 27 27 27 27 27 27 27 27 28 28 29 29 29 30 30 31 31 30 30 30 30 29 28 27 25 24 24 23 22 22 22 23 24 24 23 22 22 22 22 21 21 21
34 36 37 34 29 29 30 31 31 30 27 28 32 35 36 37 36 33 31 31 31 27 22 20 19 18 20 21 22 23 23 23 23 24 24 24 25 26 25 25 25 25 26 26 27 27 28 28 28 28 29 29 29 30 31 31 32 32 33 33 34 33 33 32 31 29 28 27 26 25 24 24 24 23 24 24 25 25 25 24 22 22 22 23 23 23
32 34 36 34 30 28 29 29 29 27 25 25 26 27 31 33 33 32 30 29 29 27 24 22 19 17 17 19 19 20 21 21 22 22 23 23 24 24 24 24 24 24 25 26 27 27 28 28 28 29 29 30 30 31 31 32 33 34 34 35 35 35 34 33 32 30 29 28 27 27 27 27 27 27 27 27 27 27 27 26 24 23 23 23 24 24
30 30 32 35 33 29 28 29 29 27 26 27 25 24 25 28 29 29 28 27 26 25 23 21 19 19 19 20 19 19 19 20 21 21 22 23 24 24 24 25 25 24 25 26 26 26 27 28 28 29 29 30 30 31 31 32 33 33 34 34 35 35 34 33 32 32 31 30 30 30 30 30 30 30 30 30 29 29 28 28 26 25 24 24 25 25
31 28 29 33 32 28 28 29 31 31 31 29 27 26 26 26 25 24 24 24 23 22 22 21 20 20 20 20 21 21 21 22 22 23 23 24 24 25 25 26 25 25 26 26 26 26 27 27 28 29 29 30 30 31 32 32 32 33 33 33 33 33 32 33 33 33 33 33 32 32 32 32 32 31 31 31 30 30 30 29 28 27 26 26 26 26
32 29 30 32 31 28 29 30 31 32 31 29 29 29 27 26 26 25 25 25 24 23 23 22 21 20 20 20 21 21 23 24 25 25 25 25 26 26 26 27 27 27 27 27 26 26 27 28 28 28 29 30 31 32 32 32 33 33 33 33 33 32 32 33 34 35 35 35 35 34 34 33 32 31 31 31 31 30 30 30 30 29 29 28 28 28
32 32 31 29 27 29 31 32 32 31 30 29 29 29 28 29 28 27 27 26 25 24 23 21 21 20 20 20 21 22 23 24 26 26 27 27 27 27 28 28 29 29 29 29 28 28 28 29 29 29 29 30 31 32 33 33 34 35 35 35 35 35 35 35 36 37 37 37 37 36 35 34 33 33 32 32 32 32 31 31 31 31 31 30 29 29
32 32 31 27 25 27 29 31 32 33 32 31 30 29 29 29 28 26 25 25 25 24 23 22 21 21 21 21 22 22 23 24 25 26 27 27 28 29 29 30 30 31 30 29 28 28 29 29 30 30 30 31 32 33 34 35 36 36 37 37 37 38 38 39 39 39 39 39 39 38 37 37 36 36 36 35 34 34 34 33 33 33 33 33 32 31
31 31 30 28 27 26 27 27 30 32 32 31 30 31 31 30 29 28 27 27 26 25 24 23 23 23 23 23 23 24 24 25 26 26 27 28 28 28 29 29 30 30 30 29 29 29 29 30 30 31 31 32 33 33 34 35 36 37 38 39 39 40 41 41 42 42 42 42 41 40 40 40 39 39 38 37 36 36 36 36 36 35 35 35 35 35
29 29 29 28 28 27 26 26 28 30 29 27 27 28 28 28 27 27 27 28 27 26 25 25 24 24 24 25 26 25 25 28 30 29 27 27 27 27 28 29 29 30 30 30 31 30 31 32 32 32 33 33 33 33 34 34 35 36 37 38 39 40 41 42 43 43 44 43 43 42 42 41 41 40 39 39 38 37 36 36 37 37 37 37 37 37
28 28 28 27 27 27 27 27 28 28 27 27 27 26 26 26 27 29 30 29 27 26 25 25 24 24 24 25 27 26 25 26 29 28 28 27 27 28 29 30 31 31 32 33 33 32 33 34 34 34 34 35 35 35 35 35 35 35 36 36 38 39 40 41 42 42 43 44 44 44 44 43 43 42 42 41 40 38 37 37 37 37 37 38 38 38
27 26 25 25 25 25 26 27 27 26 26 28 28 28 28 29 30 31 30 27 25 26 26 26 26 26 26 26 27 27 26 26 26 27 27 28 28 29 30 30 30 31 32 32 32 32 33 34 35 35 36 36 37 37 37 37 37 37 37 37 38 39 40 41 42 43 44 44 45 45 46 46 46 46 46 45 44 43 42 41 40 39 38 38 38 38
24 23 23 24 25 25 26 26 25 25 25 27 28 29 30 30 30 29 27 26 25 26 27 27 27 27 27 27 28 28 28 27 27 27 27 27 27 28 28 28 29 30 30 30 30 30 31 32 33 34 35 36 37 37 38 39 39 40 41 41 41 42 43 44 44 45 46 46 46 47 48 48 49 49 50 50 49 48 48 47 45 44 42 41 40 40
23 24 23 24 25 25 26 25 23 23 24 26 27 27 27 27 27 27 26 25 25 26 26 26 26 26 26 27 27 27 28 28 27 27 27 27 27 28 30 31 31 32 32 31 31 31 31 31 32 33 34 34 35 36 37 38 39 41 42 43 43 44 45 46 47 47 48 48 49 49 50 50 51 51 52 53 52 52 51 50 48 47 45 44 43 42
24 23 22 22 23 25 25 23 21 22 24 24 24 24 25 25 26 26 25 25 25 25 25 26 26 26 25 25 26 27 28 28 28 28 29 29 30 31 33 34 34 34 33 31 30 30 31 31 32 32 32 33 34 35 36 38 39 40 41 42 44 45 45 46 47 48 49 49 50 50 51 51 51 51 52 53 53 53 52 51 50 48 46 45 44 43
22 22 22 22 23 24 25 23 23 23 24 24 23 24 24 25 25 25 25 26 26 26 26 26 26 26 26 25 26 27 28 29 30 31 31 32 33 34 34 34 33 32 32 32 31 31 32 32 32 31 32 33 34 35 36 37 38 39 41 42 43 44 45 46 47 48 48 49 50 50 51 51 52 52 52 52 52 52 52 52 51 49 48 46 45 43
23 23 24 24 24 24 25 25 24 24 25 25 25 25 25 26 26 26 27 27 27 27 27 27 28 28 27 27 26 27 27 29 30 30 31 32 32 32 30 28 27 28 29 30 30 30 30 29 30 30 31 32 33 34 35 36 37 39 40 41 42 44 45 46 47 48 49 50 51 51 52 52 53 53 53 53 53 53 52 52 51 50 48 47 46 44
23 23 24 24 24 24 24 24 24 25 25 26 26 26 27 27 27 27 27 26 26 26 26 26 27 27 27 27 27 26 26 26 27 27 28 27 27 26 24 23 23 24 25 26 26 26 26 26 27 28 29 30 31 33 34 35 37 38 40 41 42 44 45 46 48 49 50 51 52 52 53 54 54 55 55 55 56 55 55 54 53 52 50 48 46 45
22 23 23 23 23 24 24 24 24 25 25 25 26 26 26 26 26 26 26 25 25 25 25 25 26 26 27 27 26 26 25 25 25 24 24 23 22 22 21 21 21 21 21 22 22 23 24 25 26 27 28 29 30 31 33 34 35 36 37 38 40 41 42 43 45 46 47 49 50 51 52 53 54 55 55 56 56 56 57 56 55 54 53 51 48 46
22 22 23 23 24 25 25 25 25 25 25 25 25 25 25 26 26 26 25 25 25 25 25 25 25 26 26 26 26 25 24 24 23 22 21 21 20 20 20 20 20 20 20 21 21 21 22 23 24 25 26 26 27 27 28 29 29 30 31 32 33 35 36 37 38 39 40 41 43 44 45 47 48 50 51 52 53 53 54 55 55 54 54 53 51 49
21 22 22 23 24 24 24 24 24 24 25 25 25 25 25 25 25 25 25 25 25 25 25 25 24 25 25 25 25 25 24 23 23 22 21 20 20 20 20 19 19 19 19 19 19 20 20 20 20 20 20 20 20 20 21 22 23 24 25 26 28 29 30 31 32 33 33 34 35 36 37 38 39 40 42 44 45 46 47 48 49 50 50 50 50 49
Wind_Direction
220 220 221 222 224 224 222 221 219 221 222 224 221 214 219 216 206 219 235 234 224 222 225 205 204 223 225 224 228 228 219 217 225 226 225 226 224 225 229 236 240 241 248 250 249 252 257 265 269 271 274 277 281 284 286 287 288 289 288 288 288 290 293 293 293 297 298 300 300 301 301 299 298 298 296 293 289 286 283 281 279 281 283 280 282 283
219 220 222 221 222 222 219 217 216 217 218 218 218 214 216 215 202 210 229 232 227 220 218 210 214 226 227 228 230 230 223 217 223 224 222 222 221 226 232 238 241 240 245 250 254 257 261 265 269 272 275 278 281 283 284 285 286 287 288 288 287 289 291 291 293 296 297 298 301 301 297 294 294 294 293 291 287 284 281 281 281 283 284 281 282 282
219 220 220 218 219 218 217 215 213 216 218 217 217 213 215 213 201 212 227 231 231 218 198 206 221 224 224 228 228 227 227 224 225 223 219 219 221 227 233 237 241 242 243 247 254 260 262 265 268 271 274 276 278 280 282 284 287 288 289 289 288 288 288 290 293 295 297 300 301 299 295 291 291 290 289 288 286 284 282 282 284 283 282 282 281 279
220 219 218 216 216 216 216 215 211 216 219 218 218 213 212 213 205 219 230 229 229 212 190 207 222 219 218 223 225 227 230 229 226 223 219 218 221 228 233 234 237 239 241 247 254 260 261 263 264 267 270 272 274 278 281 284 287 288 289 289 288 288 289 291 294 294 296 298 297 297 296 293 293 290 287 286 285 284 281 279 278 279 280 282 281 278
221 219 217 217 216 216 216 213 212 216 218 215 215 210 206 205 204 220 230 228 225 215 204 217 226 221 220 221 226 233 234 229 224 223 221 220 223 228 231 233 236 238 242 248 253 256 258 260 262 265 267 270 273 277 280 283 285 287 286 287 287 288 289 290 290 291 292 294 294 295 296 296 296 294 290 288 286 284 281 277 276 278 279 280 281 279
218 218 218 218 217 217 215 212 213 216 216 213 212 204 190 193 208 222 231 229 225 220 215 219 221 221 225 226 228 234 233 228 224 223 221 221 223 226 229 232 235 238 244 249 250 252 257 261 263 266 267 269 273 276 280 283 284 285 285 285 287 286 287 289 290 291 292 293 295 296 296 297 297 296 293 291 288 285 283 280 278 277 277 278 278 278
215 216 217 218 218 217 215 213 214 215 213 212 212 202 183 193 210 218 229 229 228 226 223 223 221 220 227 227 228 232 229 225 225 223 222 222 224 226 228 231 236 241 245 247 248 252 258 263 265 266 268 271 275 278 280 283 283 284 283 283 285 286 288 291 291 292 293 294 295 297 297 296 295 294 292 290 289 287 284 282 279 277 277 278 276 276
214 215 216 216 217 217 215 214 214 213 210 210 213 203 185 194 207 202 215 224 226 226 224 226 224 221 229 228 227 232 228 224 224 223 223 224 225 228 228 231 238 241 243 244 250 257 261 265 267 268 270 274 276 278 280 281 281 280 281 283 285 288 290 291 291 292 295 296 297 297 295 295 294 293 292 291 291 289 286 283 279 278 277 277 276 276
214 214 215 215 215 216 215 214 214 211 207 205 212 208 192 190 205 206 210 217 220 222 224 227 220 217 228 228 225 230 229 225 225 223 224 226 227 229 230 232 237 238 240 245 253 261 265 266 267 269 272 275 275 276 277 276 277 277 280 285 287 290 291 291 292 294 296 298 298 297 295 295 294 294 293 292 291 290 288 285 281 278 276 275 276 277
214 214 218 217 214 214 214 212 213 210 203 196 205 208 198 189 199 208 209 210 213 217 221 225 217 213 226 228 223 226 226 223 222 221 224 225 226 229 230 231 233 234 239 247 256 263 266 265 266 269 272 273 273 273 274 272 273 277 281 286 289 291 292 293 295 296 298 299 298 298 297 295 294 293 292 290 289 288 286 286 284 280 275 274 275 275
213 212 217 218 211 212 213 209 212 209 196 186 197 203 199 194 196 202 205 204 210 218 220 223 217 212 222 228 225 225 225 222 219 219 222 223 223 225 227 229 230 232 238 246 256 261 263 263 265 268 269 269 270 270 271 271 273 278 283 287 289 291 293 295 296 297 298 299 298 298 297 295 294 293 292 290 289 287 285 285 285 282 277 273 273 276
212 213 215 217 210 209 212 208 212 205 187 184 196 193 196 199 199 198 201 200 207 221 222 221 219 212 218 226 225 224 223 218 215 219 224 223 222 223 225 227 229 231 238 245 253 258 259 262 264 267 269 269 270 270 270 273 276 281 284 286 288 290 292 294 295 296 297 297 298 298 297 297 296 295 293 291 290 289 287 286 284 282 277 272 272 278
212 216 216 217 210 208 209 205 208 201 187 193 200 190 192 201 203 202 201 201 204 216 217 214 215 212 218 227 227 225 223 218 216 218 223 223 221 223 224 226 230 234 240 246 252 258 261 264 266 269 272 271 272 272 273 277 279 281 283 285 287 288 291 292 293 294 295 296 297 298 298 299 298 296 293 291 290 290 290 289 285 281 276 273 272 273
210 215 216 215 210 208 206 201 203 200 195 200 200 195 194 200 207 207 205 205 206 212 211 205 210 210 216 224 225 225 224 222 222 220 223 224 221 222 223 226 232 236 242 248 255 262 265 268 270 272 274 273 273 274 275 277 277 279 282 284 286 287 289 291 292 293 293 294 295 296 298 298 298 297 294 292 291 291 292 292 290 281 272 272 272 269
209 214 216 212 209 208 204 201 202 200 203 206 198 195 196 201 211 209 205 206 206 208 199 191 204 212 217 224 224 222 221 220 222 222 223 224 221 221 223 227 233 237 243 252 260 266 269 271 272 273 274 273 272 272 272 273 275 278 282 284 286 287 288 290 290 291 292 293 294 295 295 296 296 296 295 294 292 291 291 291 292 288 277 270 270 270
212 216 218 213 209 207 203 202 200 195 204 208 198 194 197 201 212 213 206 206 208 207 196 190 204 214 219 225 223 221 220 217 218 222 223 223 222 222 224 228 233 237 245 255 263 269 272 273 272 272 272 271 270 269 269 272 275 278 281 283 285 286 288 289 289 291 293 294 295 295 294 294 293 293 294 294 294 292 290 289 288 289 286 276 269 270
212 215 218 215 209 207 205 203 202 196 201 206 200 198 200 198 207 216 210 207 208 210 208 206 211 217 219 221 220 220 221 217 216 220 222 223 223 223 226 229 234 239 247 257 265 270 272 272 271 270 270 269 268 268 269 272 275 278 279 281 283 284 286 287 289 292 294 295 296 295 294 292 292 292 292 294 295 294 291 288 283 281 285 283 273 268
210 212 219 217 209 207 207 205 203 199 198 204 203 200 199 195 201 215 212 208 206 207 216 218 219 223 224 222 220 219 219 219 219 220 222 223 224 226 229 232 237 243 250 259 266 269 271 271 270 269 269 268 268 269 271 273 275 277 279 281 283 284 285 287 289 291 294 296 297 296 295 292 291 291 292 293 294 293 291 288 283 281 282 282 278 271
202 201 212 216 209 206 207 204 201 200 196 200 206 200 194 196 201 206 210 210 210 212 218 221 221 225 227 226 225 222 221 221 221 222 223 224 226 230 233 236 240 246 252 259 264 268 270 270 268 268 268 267 267 268 269 271 274 276 279 282 284 285 285 286 288 290 293 296 297 296 294 291 290 291 292 293 292 292 290 287 286 286 284 279 276 274
198 197 204 209 203 201 206 202 196 199 196 192 202 201 194 196 202 206 213 215 214 217 220 221 220 223 228 229 227 225 225 225 224 225 226 227 229 233 235 238 243 248 253 259 264 268 270 268 266 265 265 263 262 264 265 268 272 274 277 280 281 282 283 284 287 290 292 294 295 295 292 291 292 293 294 293 293 292 290 288 288 290 290 283 272 268
195 200 205 206 200 200 207 204 200 203 198 190 195 201 196 196 197 203 217 220 215 218 224 224 222 223 228 228 224 222 222 224 225 226 227 228 231 234 237 241 246 250 254 259 264 267 268 266 264 263 261 259 259 261 263 266 269 271 274 276 278 279 281 284 286 288 290 292 293 293 293 294 295 294 294 294 294 294 294 293 291 289 289 284 273 265
192 198 202 201 202 205 208 207 206 208 203 198 201 197 197 200 196 198 210 214 211 214 222 225 225 225 229 230 224 220 219 220 222 225 227 230 233 236 240 244 248 251 255 259 263 266 266 264 262 260 257 256 258 260 262 264 266 269 272 275 277 279 281 284 285 286 289 291 292 293 294 294 294 293 294 295 296 298 299 298 296 293 287 282 275 269
193 197 202 201 204 209 208 207 206 205 205 210 208 194 195 204 201 200 205 207 208 207 212 227 231 228 230 234 231 222 220 220 221 223 226 231 235 238 241 245 249 252 256 260 263 266 265 261 259 257 256 256 258 259 260 262 264 267 271 274 276 279 281 283 284 286 289 291 292 293 294 294 294 293 295 298 301 303 304 302 300 296 286 276 272 270
191 192 198 198 196 200 204 203 203 202 205 210 205 196 196 205 204 203 205 211 216 208 204 221 231 229 227 231 231 227 225 225 224 225 228 231 234 238 242 246 249 252 257 261 263 264 262 259 257 256 256 257 257 258 260 261 263 266 270 274 277 280 282 283 284 286 288 290 292 294 295 296 295 295 297 301 305 308 310 308 306 298 284 270 264 264
192 191 193 193 191 189 192 195 199 203 206 206 205 203 203 204 206 205 201 211 221 217 210 216 225 228 226 226 228 230 231 231 229 229 231 233 236 240 244 246 250 254 258 260 261 260 258 256 256 256 257 258 258 259 260 260 263 265 269 273 277 279 281 281 283 284 286 290 292 294 296 296 297 298 300 303 308 314 315 315 314 305 285 269 261 258
193 193 193 194 196 195 193 194 198 202 205 204 204 208 208 205 208 206 199 209 221 221 220 222 225 228 227 227 228 230 233 233 232 233 234 235 238 240 243 247 251 255 257 258 257 256 255 255 256 257 257 258 258 259 260 261 263 265 269 273 275 276 278 278 280 283 286 290 292 294 296 297 298 300 303 306 310 315 317 317 316 311 291 269 260 258
192 193 193 193 198 201 199 199 202 202 204 205 202 205 206 203 208 211 206 210 220 221 222 226 229 232 233 232 229 228 230 230 231 233 234 235 238 241 245 248 251 253 253 254 253 252 252 254 256 257 258 259 259 259 260 262 264 267 270 272 272 272 274 276 279 283 287 290 292 294 296 297 299 301 304 308 311 314 317 316 315 315 307 288 271 264
192 193 192 190 190 193 196 200 204 201 202 205 201 200 202 199 203 210 209 212 217 219 220 222 224 230 234 233 229 227 228 228 228 231 233 235 238 242 246 248 248 248 249 249 249 249 251 253 255 257 258 259 260 259 260 262 264 267 268 268 269 271 273 276 280 284 286 289 290 292 295 297 298 301 304 308 312 315 317 318 317 316 314 310 303 293
193 191 192 193 188 187 190 194 198 199 202 206 205 202 203 202 202 205 207 211 213 217 222 223 222 225 231 234 232 230 230 231 232 234 236 238 240 242 244 244 244 244 244 244 245 247 250 252 254 256 257 258 258 259 259 261 263 264 264 265 268 272 275 277 280 283 284 286 287 290 293 294 296 298 302 306 309 313 316 317 317 316 313 312 309 305
192 191 191 195 192 188 189 190 188 190 197 203 204 202 201 201 201 203 206 207 207 211 218 220 219 220 226 231 233 232 233 233 234 235 236 237 238 239 239 239 239 239 240 242 244 247 250 252 254 256 256 257 257 258 259 261 262 262 262 264 267 271 275 277 279 281 282 283 284 286 288 289 291 294 298 302 305 308 312 313 313 313 310 308 305 301
192 192 192 194 195 189 188 188 187 189 192 197 200 200 199 198 198 201 205 207 208 210 214 215 215 216 221 227 230 231 233 233 233 234 234 234 234 234 235 233 233 235 239 242 245 249 252 253 255 256 256 256 256 258 260 261 262 263 263 264 267 270 274 276 278 279 279 280 280 281 282 283 285 288 292 297 300 302 305 307 308 308 306 304 301 299
192 193 192 192 194 193 190 188 189 190 192 195 199 199 199 199 198 199 202 205 208 211 213 213 215 216 219 224 227 229 231 232 233 233 232 231 230 230 230 229 230 235 240 245 248 251 253 254 255 256 255 256 256 258 260 261 263 264 264 265 267 269 272 274 275 275 277 278 279 279 279 278 279 282 287 291 294 297 298 300 301 302 301 299 297 295
191 194 194 193 194 194 190 188 189 191 191 191 192 193 195 196 198 201 204 206 207 209 212 216 220 222 224 226 227 229 232 232 232 231 229 227 227 226 227 228 231 235 240 245 249 251 253 255 256 256 256 256 257 259 260 262 263 264 265 266 267 269 271 272 272 272 274 277 278 278 278 279 279 280 283 286 288 291 292 292 293 294 294 295 293 291
189 192 194 196 196 195 190 186 188 193 196 194 190 189 192 194 197 202 207 211 213 215 220 224 228 229 229 230 230 230 231 231 230 229 227 226 226 227 229 231 233 235 239 245 249 252 254 256 256 257 258 258 259 260 261 262 263 265 266 267 267 268 269 269 269 270 273 276 278 279 279 280 281 281 282 283 284 285 285 286 286 286 286 287 288 288
191 192 193 195 196 195 193 190 190 193 197 197 196 196 198 201 204 207 211 216 220 221 224 226 228 230 231 233 233 230 228 228 227 227 227 228 229 230 232 234 234 236 240 246 249 252 255 256 257 258 259 259 260 260 260 262 263 265 266 267 268 268 268 268 268 269 273 276 278 279 280 280 281 282 283 283 284 283 282 281 281 281 280 281 282 283
193 194 194 193 194 196 195 195 197 198 198 199 200 202 203 204 208 212 215 219 221 222 224 226 228 231 231 231 231 230 229 228 228 228 228 229 231 233 235 237 238 241 245 248 251 252 254 255 257 259 260 261 261 261 262 263 264 265 266 267 268 269 269 269 270 271 273 276 278 279 280 281 281 282 282 283 284 283 281 279 279 278 278 277 277 278
190 193 194 193 193 195 197 198 201 203 203 203 204 206 206 207 210 213 216 221 224 225 227 229 230 231 229 227 227 227 227 228 229 230 231 233 235 237 239 241 242 245 249 252 254 254 254 255 256 258 261 263 264 264 265 266 266 266 267 268 269 271 272 273 273 273 274 276 277 277 278 279 280 281 282 282 282 282 281 279 278 277 277 277 276 276
187 190 195 198 197 196 198 201 202 204 205 205 205 208 210 212 216 219 221 224 227 228 230 233 235 235 232 228 226 225 225 227 229 231 233 236 237 239 241 244 246 248 251 253 255 255 255 255 256 258 261 263 265 267 268 269 269 269 270 271 272 273 274 275 276 276 276 275 275 276 276 277 278 280 280 280 280 280 280 280 278 277 277 277 277 276
188 190 194 199 202 202 201 202 204 206 208 208 207 210 213 213 215 217 220 223 226 229 233 237 239 239 235 231 228 230 232 231 230 231 234 236 238 241 243 246 249 250 252 254 255 256 256 257 257 258 260 263 267 269 271 271 271 271 271 272 273 273 275 276 277 278 278 277 277 277 278 279 280 280 280 280 279 279 278 278 277 276 276 277 277 277
192 195 197 199 204 206 206 206 208 209 211 212 211 212 214 214 215 219 223 226 229 234 238 239 240 240 238 234 234 240 245 240 232 229 232 235 238 243 248 251 253 255 256 256 257 259 260 260 260 261 262 265 268 270 272 273 273 274 273 273 274 274 275 276 276 277 278 279 279 280 280 281 282 282 282 281 280 279 278 277 276 276 275 275 275 276
192 196 200 202 205 207 208 211 212 211 211 214 216 217 219 221 224 227 230 230 233 236 238 238 239 239 239 238 239 245 252 247 236 232 234 237 242 249 254 256 258 259 260 260 261 263 264 264 265 265 266 267 268 270 271 272 274 275 276 276 276 276 276 276 277 277 278 279 279 280 281 282 283 283 283 283 282 281 280 278 277 276 276 276 275 275
189 193 197 201 203 205 209 213 215 214 213 215 219 221 223 225 228 231 232 232 234 237 239 239 240 241 242 243 244 247 250 249 245 242 241 244 249 253 256 258 259 260 261 263 263 264 265 266 268 268 268 268 269 269 270 271 273 275 277 278 278 278 278 278 278 279 279 279 279 280 280 281 282 283 283 283 283 283 282 281 280 278 277 277 276 275
190 191 195 200 201 204 209 214 215 215 215 216 219 222 224 227 230 234 236 236 236 238 241 242 243 244 244 245 246 247 248 249 249 247 247 248 251 254 256 258 260 261 262 262 263 264 265 267 269 270 270 270 269 270 270 271 273 275 277 278 279 279 279 279 279 279 279 279 279 280 280 280 281 281 283 283 283 283 283 283 282 281 279 278 277 276
193 194 196 202 205 206 211 215 214 214 218 220 221 223 226 229 232 234 236 237 236 237 239 241 241 242 243 243 244 245 246 247 247 248 248 249 251 254 258 260 262 263 263 264 265 265 265 267 269 270 271 271 271 271 272 272 274 275 276 277 278 279 279 279 279 279 280 280 280 280 280 280 281 281 282 283 284 284 284 284 283 283 281 280 278 277
201 201 201 205 210 211 213 217 218 218 221 224 224 226 228 231 233 235 236 236 236 236 236 237 238 239 240 241 242 242 243 245 246 246 248 250 253 256 260 262 263 263 262 263 264 264 266 269 271 272 273 274 274 275 276 276 277 277 278 278 279 279 280 280 280 280 280 280 280 280 280 280 280 280 281 281 283 284 284 284 284 284 283 281 280 278
211 210 208 210 214 215 215 217 219 221 223 224 225 226 228 231 233 235 237 238 238 238 238 238 239 239 240 240 241 242 242 243 244 246 249 252 255 259 262 263 262 260 259 260 263 266 268 271 273 274 276 277 278 279 280 280 281 281 282 282 282 282 283 283 283 282 282 282 282 281 281 281 281 280 280 280 280 281 282 283 284 284 284 283 282 280
216 215 215 217 219 221 221 221 223 225 226 227 228 229 232 234 236 237 239 240 241 241 240 240 241 241 242 243 243 243 243 244 246 248 250 253 256 259 260 260 258 257 258 260 263 266 269 271 274 277 280 282 283 285 286 287 287 288 288 288 288 288 288 287 286 286 285 284 284 283 283 282 282 281 281 281 280 280 280 280 281 281 282 282 282 281
219 220 221 222 224 227 228 227 228 229 230 231 232 233 235 237 239 240 240 241 241 241 241 241 241 242 242 243 244 243 243 244 246 248 250 253 254 255 256 255 255 257 259 262 265 269 272 276 279 282 285 287 289 290 290 291 291 291 290 290 290 289 288 287 287 286 286 285 284 284 283 282 281 281 280 280 280 279 279 278 278 278 278 278 279 279
218 221 223 224 226 228 229 229 230 231 232 233 234 235 236 237 238 239 239 239 239 239 239 239 240 241 241 242 243 244 244 245 246 248 250 251 252 253 254 257 260 262 265 268 271 275 278 281 284 285 287 289 290 290 291 292 292 292 292 292 291 291 290 290 288 287 286 285 284 283 282 281 280 279 278 277 278 278 278 277 277 276 276 275 275 275
217 218 220 222 223 225 226 227 228 229 231 232 233 234 235 235 236 236 237 237 237 237 237 238 239 240 241 242 244 245 245 246 248 250 251 253 255 257 259 262 265 267 270 273 275 278 281 283 285 287 289 291 292 294 296 298 299 300 301 301 300 299 298 297 295 293 291 289 287 285 283 282 280 279 277 276 276 276 276 276 276 275 275 274 273 272
218 218 219 221 223 225 226 227 227 228 229 230 230 232 233 233 234 234 234 235 235 235 236 237 238 239 240 242 243 245 247 249 251 254 256 259 260 261 262 264 266 268 271 273 276 278 281 284 287 290 294 298 302 306 309 313 315 317 317 317 317 315 313 311 308 305 302 299 296 293 290 288 286 284 282 280 278 277 276 275 275 275 275 274 273 271
Height
5728 5730 5732 5738 5743 5746 5750 5753 5757 5761 5763 5766 5769 5773 5774 5776 5780 5780 5778 5780 5786 5789 5791 5795 5796 5794 5796 5798 5800 5802 5803 5805 5806 5808 5810 5811 5812 5813 5813 5814 5815 5817 5816 5816 5818 5820 5821 5821 5822 5822 5822 5822 5822 5822 5822 5822 5822 5822 5822 5823 5823 5822 5822 5821 5820 5819 5819 5819 5818 5817 5816 5815 5814 5813 5811 5811 5811 5810 5809 5808 5807 5807 5807 5807 5808 5808
5723 5726 5730 5737 5740 5742 5746 5749 5754 5758 5760 5762 5765 5769 5771 5775 5779 5779 5775 5777 5782 5786 5790 5793 5792 5791 5794 5796 5798 5800 5801 5802 5804 5806 5807 5809 5809 5810 5811 5811 5812 5815 5815 5815 5817 5818 5819 5819 5819 5820 5820 5820 5820 5820 5820 5820 5820 5820 5821 5821 5821 5821 5820 5820 5819 5818 5818 5817 5816 5816 5815 5813 5812 5811 5810 5809 5809 5808 5807 5806 5805 5805 5805 5804 5805 5804
5718 5722 5728 5733 5735 5738 5742 5745 5751 5754 5755 5758 5762 5767 5769 5772 5776 5774 5772 5776 5780 5785 5791 5791 5788 5789 5792 5793 5795 5797 5798 5799 5801 5803 5805 5806 5807 5807 5808 5809 5810 5812 5812 5813 5815 5816 5817 5817 5818 5818 5818 5818 5818 5818 5818 5818 5818 5819 5819 5819 5819 5819 5819 5818 5817 5816 5816 5815 5814 5814 5812 5811 5810 5809 5808 5807 5806 5805 5805 5804 5804 5803 5803 5803 5802 5801
5715 5720 5726 5728 5731 5734 5737 5742 5748 5749 5751 5756 5760 5765 5767 5770 5773 5770 5768 5774 5779 5783 5787 5786 5785 5788 5790 5791 5792 5793 5794 5796 5798 5801 5802 5804 5804 5804 5805 5807 5808 5809 5810 5811 5813 5815 5815 5815 5816 5816 5816 5816 5816 5816 5816 5816 5816 5817 5817 5817 5817 5817 5817 5816 5815 5814 5813 5813 5812 5812 5810 5809 5808 5807 5806 5805 5804 5803 5803 5803 5802 5801 5801 5801 5800 5799
5714 5719 5722 5724 5727 5730 5734 5739 5743 5744 5749 5754 5758 5762 5766 5770 5772 5766 5766 5773 5776 5780 5782 5782 5784 5787 5787 5788 5790 5790 5791 5793 5795 5798 5799 5801 5802 5802 5803 5805 5806 5807 5808 5810 5812 5813 5813 5813 5814 5814 5814 5814 5814 5814 5814 5814 5815 5815 5815 5815 5815 5815 5815 5814 5813 5812 5811 5811 5810 5809 5809 5807 5806 5805 5803 5802 5802 5801 5800 5800 5799 5799 5798 5799 5798 5797
5711 5715 5718 5721 5724 5727 5731 5736 5738 5741 5747 5752 5754 5758 5764 5769 5768 5763 5765 5770 5772 5775 5778 5779 5781 5783 5784 5786 5787 5787 5789 5791 5792 5794 5796 5798 5799 5800 5801 5803 5804 5805 5807 5809 5810 5811 5811 5811 5812 5812 5812 5812 5813 5812 5812 5813 5813 5813 5813 5813 5813 5813 5812 5812 5811 5810 5809 5809 5808 5807 5806 5805 5804 5802 5800 5799 5799 5798 5798 5797 5796 5796 5795 5796 5796 5795
5707 5710 5713 5717 5721 5724 5728 5732 5735 5740 5745 5748 5751 5755 5761 5766 5766 5763 5763 5765 5768 5772 5774 5776 5779 5781 5782 5783 5784 5786 5787 5788 5789 5792 5793 5795 5796 5797 5799 5801 5802 5804 5806 5807 5808 5809 5809 5809 5809 5810 5810 5810 5811 5811 5810 5811 5811 5811 5811 5811 5811 5811 5810 5810 5808 5808 5807 5807 5806 5805 5803 5802 5801 5799 5798 5796 5795 5795 5795 5794 5794 5793 5792 5793 5793 5793
5702 5705 5709 5713 5717 5720 5725 5729 5732 5737 5742 5745 5748 5752 5757 5762 5764 5762 5760 5762 5767 5771 5772 5773 5777 5780 5779 5780 5782 5783 5785 5786 5787 5789 5791 5792 5793 5795 5797 5799 5800 5802 5803 5804 5805 5806 5807 5807 5807 5807 5808 5808 5808 5808 5808 5808 5809 5809 5809 5809 5809 5808 5808 5807 5806 5806 5805 5804 5804 5802 5801 5800 5798 5797 5796 5794 5793 5792 5792 5792 5791 5790 5790 5790 5790 5790
5698 5702 5704 5707 5711 5716 5722 5727 5730 5734 5740 5743 5746 5748 5753 5758 5761 5759 5758 5762 5766 5769 5769 5770 5775 5778 5776 5777 5779 5780 5782 5783 5784 5786 5788 5789 5791 5793 5795 5797 5798 5800 5801 5802 5803 5804 5805 5805 5805 5805 5806 5806 5806 5806 5806 5806 5806 5806 5806 5806 5806 5806 5806 5805 5804 5803 5803 5802 5801 5800 5798 5797 5796 5795 5794 5792 5791 5790 5789 5789 5789 5788 5788 5788 5788 5788
5694 5699 5701 5703 5709 5715 5720 5724 5726 5731 5737 5742 5743 5745 5750 5755 5756 5756 5757 5762 5765 5766 5767 5767 5771 5774 5773 5773 5776 5777 5779 5780 5781 5783 5785 5787 5790 5791 5793 5795 5796 5798 5799 5800 5801 5801 5802 5803 5803 5804 5804 5804 5803 5803 5804 5804 5804 5804 5804 5804 5804 5803 5803 5802 5801 5800 5800 5799 5798 5797 5796 5795 5794 5793 5791 5790 5789 5788 5787 5787 5787 5786 5785 5786 5785 5785
5691 5695 5695 5699 5707 5713 5716 5720 5723 5728 5735 5740 5741 5742 5746 5750 5752 5754 5757 5761 5763 5762 5763 5765 5768 5771 5771 5771 5773 5774 5775 5777 5778 5781 5783 5785 5787 5789 5791 5793 5794 5796 5797 5798 5799 5799 5800 5801 5801 5802 5802 5801 5801 5801 5801 5802 5802 5801 5801 5801 5801 5801 5800 5800 5798 5797 5797 5796 5795 5795 5793 5792 5791 5790 5789 5788 5786 5785 5785 5785 5785 5784 5784 5784 5783 5782
5687 5688 5691 5696 5704 5709 5713 5717 5720 5725 5731 5736 5737 5739 5743 5746 5748 5752 5755 5758 5759 5759 5760 5763 5766 5769 5769 5768 5770 5770 5771 5774 5776 5779 5781 5783 5785 5787 5789 5791 5793 5794 5795 5796 5797 5798 5798 5799 5800 5800 5800 5799 5799 5799 5799 5799 5799 5799 5799 5799 5798 5798 5797 5797 5796 5795 5794 5793 5792 5792 5791 5789 5788 5787 5786 5785 5783 5782 5782 5783 5783 5783 5782 5782 5781 5781
5682 5685 5689 5694 5701 5704 5709 5714 5717 5722 5727 5730 5731 5735 5739 5742 5743 5746 5749 5752 5755 5756 5759 5761 5764 5767 5768 5766 5765 5766 5768 5771 5773 5776 5779 5781 5784 5786 5787 5789 5791 5792 5793 5794 5795 5796 5796 5797 5797 5798 5797 5797 5797 5797 5797 5797 5797 5797 5796 5796 5796 5795 5795 5794 5793 5792 5791 5790 5790 5789 5788 5787 5786 5785 5784 5782 5780 5779 5779 5779 5780 5780 5780 5779 5779 5779
5679 5682 5685 5690 5696 5700 5705 5711 5713 5717 5722 5724 5727 5731 5734 5737 5738 5741 5744 5747 5751 5754 5757 5761 5764 5765 5763 5760 5760 5762 5765 5768 5772 5775 5777 5779 5781 5783 5785 5787 5789 5790 5791 5792 5793 5794 5794 5795 5795 5795 5795 5795 5795 5795 5795 5795 5795 5794 5794 5794 5793 5793 5792 5791 5790 5789 5789 5788 5787 5786 5785 5784 5783 5782 5780 5779 5778 5777 5776 5776 5776 5777 5776 5776 5775 5776
5676 5678 5681 5686 5692 5697 5703 5708 5711 5716 5718 5719 5725 5730 5733 5735 5736 5738 5742 5745 5749 5752 5755 5760 5762 5760 5757 5754 5757 5761 5764 5767 5771 5772 5774 5776 5779 5781 5783 5785 5786 5788 5789 5790 5791 5791 5792 5792 5792 5793 5793 5793 5793 5793 5793 5793 5792 5792 5792 5791 5791 5790 5789 5789 5788 5787 5786 5785 5785 5784 5783 5782 5781 5779 5777 5776 5776 5775 5773 5773 5773 5773 5772 5772 5772 5772
5674 5677 5681 5686 5690 5695 5700 5704 5708 5713 5715 5717 5723 5727 5730 5734 5735 5737 5742 5745 5748 5750 5752 5755 5754 5752 5752 5753 5756 5760 5762 5765 5768 5769 5771 5774 5777 5779 5781 5783 5784 5786 5787 5788 5789 5789 5789 5789 5790 5790 5790 5790 5790 5790 5790 5790 5790 5789 5789 5789 5788 5788 5787 5786 5785 5784 5783 5783 5782 5782 5781 5780 5778 5777 5775 5773 5773 5772 5771 5769 5770 5770 5768 5768 5767 5768
5672 5677 5681 5684 5688 5693 5696 5701 5705 5708 5711 5715 5719 5722 5728 5733 5736 5737 5740 5743 5745 5746 5748 5749 5748 5748 5749 5750 5753 5756 5758 5762 5764 5766 5769 5772 5774 5777 5779 5781 5782 5783 5785 5786 5786 5786 5787 5787 5787 5788 5788 5788 5788 5788 5788 5787 5787 5787 5787 5786 5786 5785 5784 5783 5782 5782 5781 5780 5780 5779 5779 5777 5776 5774 5772 5770 5768 5768 5767 5765 5765 5765 5764 5764 5763 5764
5673 5678 5679 5681 5686 5690 5693 5698 5703 5705 5708 5712 5716 5721 5727 5731 5734 5736 5738 5740 5742 5743 5744 5745 5745 5746 5747 5748 5751 5754 5755 5758 5761 5764 5767 5769 5772 5775 5777 5779 5780 5781 5782 5783 5784 5784 5784 5785 5785 5785 5785 5785 5785 5785 5785 5785 5784 5784 5784 5783 5783 5782 5781 5780 5780 5779 5778 5778 5777 5776 5775 5774 5773 5771 5770 5768 5765 5763 5763 5761 5760 5760 5761 5761 5760 5760
5673 5677 5676 5677 5683 5687 5689 5694 5699 5702 5705 5711 5715 5720 5724 5728 5730 5732 5733 5735 5738 5739 5740 5742 5743 5744 5746 5748 5750 5752 5754 5757 5759 5762 5765 5767 5770 5773 5775 5776 5777 5779 5780 5781 5781 5782 5782 5783 5783 5783 5783 5783 5782 5782 5782 5782 5781 5781 5781 5780 5780 5779 5778 5778 5777 5777 5776 5775 5774 5773 5772 5771 5770 5768 5767 5765 5762 5760 5759 5758 5756 5756 5757 5757 5757 5757
5670 5673 5673 5675 5680 5684 5685 5688 5694 5697 5701 5707 5713 5717 5720 5725 5728 5729 5730 5732 5735 5736 5737 5740 5742 5743 5744 5746 5748 5751 5753 5756 5758 5760 5763 5766 5768 5770 5772 5774 5775 5776 5778 5778 5779 5780 5780 5780 5780 5781 5781 5780 5780 5779 5779 5779 5779 5779 5778 5778 5777 5776 5775 5775 5774 5774 5774 5773 5772 5770 5769 5768 5767 5765 5763 5761 5759 5757 5755 5754 5754 5754 5754 5753 5753 5753
5667 5670 5671 5674 5677 5679 5681 5685 5691 5694 5698 5703 5708 5712 5716 5720 5724 5728 5728 5730 5733 5735 5736 5738 5740 5741 5741 5742 5744 5747 5750 5753 5755 5758 5761 5764 5766 5768 5770 5772 5773 5774 5775 5776 5777 5777 5777 5778 5778 5778 5778 5778 5777 5777 5777 5777 5776 5776 5776 5775 5774 5774 5773 5773 5772 5772 5771 5770 5769 5768 5767 5765 5764 5762 5761 5759 5756 5754 5752 5751 5750 5751 5751 5751 5750 5750
5664 5667 5669 5671 5673 5676 5680 5686 5691 5694 5697 5700 5704 5709 5713 5717 5720 5723 5725 5727 5731 5733 5734 5735 5737 5739 5739 5738 5740 5743 5746 5750 5752 5756 5759 5761 5764 5766 5768 5769 5770 5771 5772 5773 5774 5774 5774 5775 5774 5775 5775 5774 5774 5774 5774 5774 5774 5774 5773 5772 5772 5771 5771 5770 5770 5769 5769 5767 5766 5765 5764 5763 5761 5760 5758 5756 5754 5751 5749 5748 5747 5747 5747 5748 5748 5748
5662 5665 5668 5671 5674 5676 5681 5686 5690 5694 5697 5698 5701 5707 5712 5715 5717 5719 5722 5725 5728 5731 5733 5734 5733 5734 5736 5738 5739 5742 5745 5748 5751 5754 5757 5759 5761 5764 5765 5766 5767 5769 5770 5770 5771 5771 5771 5771 5771 5771 5771 5771 5771 5771 5771 5771 5771 5771 5771 5770 5769 5769 5768 5768 5767 5767 5766 5765 5764 5763 5761 5760 5759 5757 5755 5753 5751 5749 5747 5745 5744 5744 5743 5743 5744 5744
5660 5663 5667 5671 5675 5678 5682 5685 5688 5692 5695 5696 5700 5705 5709 5712 5714 5717 5722 5725 5726 5728 5731 5732 5729 5730 5733 5736 5737 5740 5742 5746 5749 5752 5754 5757 5759 5761 5762 5764 5765 5766 5767 5767 5767 5767 5767 5767 5767 5768 5768 5768 5768 5768 5768 5768 5768 5768 5768 5767 5766 5766 5766 5765 5765 5764 5763 5762 5761 5760 5759 5757 5756 5755 5753 5751 5749 5746 5744 5742 5741 5740 5740 5739 5739 5739
5658 5661 5665 5668 5671 5674 5677 5680 5683 5687 5691 5694 5697 5700 5704 5709 5712 5715 5720 5723 5723 5725 5728 5728 5726 5727 5730 5732 5734 5738 5740 5743 5747 5749 5752 5754 5756 5758 5759 5761 5762 5763 5763 5763 5764 5763 5763 5763 5764 5765 5765 5765 5765 5765 5765 5765 5766 5766 5765 5765 5764 5763 5763 5763 5762 5761 5761 5760 5758 5757 5756 5755 5753 5752 5750 5749 5747 5745 5743 5741 5739 5738 5737 5736 5736 5736
5658 5661 5663 5666 5668 5670 5671 5674 5678 5683 5688 5692 5695 5698 5702 5706 5709 5712 5716 5718 5718 5721 5725 5725 5724 5726 5728 5730 5733 5736 5739 5742 5744 5747 5749 5751 5753 5755 5756 5758 5759 5759 5759 5760 5760 5760 5760 5760 5761 5761 5761 5762 5762 5762 5762 5762 5762 5763 5762 5762 5761 5761 5760 5760 5759 5759 5758 5757 5756 5754 5753 5752 5750 5749 5747 5746 5745 5743 5741 5740 5738 5737 5735 5734 5734 5733
5655 5658 5661 5663 5667 5670 5673 5677 5680 5683 5686 5689 5693 5696 5700 5704 5708 5710 5714 5716 5717 5720 5722 5722 5722 5723 5725 5728 5731 5735 5737 5740 5742 5744 5746 5748 5750 5752 5753 5754 5755 5756 5756 5756 5756 5756 5756 5757 5757 5758 5758 5758 5758 5759 5759 5759 5759 5759 5759 5759 5758 5758 5757 5757 5756 5756 5755 5754 5753 5752 5751 5749 5748 5746 5745 5743 5742 5741 5740 5739 5737 5736 5735 5733 5732 5731
5653 5655 5659 5662 5664 5668 5674 5678 5680 5682 5685 5688 5691 5695 5698 5702 5706 5709 5712 5714 5715 5717 5718 5718 5719 5721 5723 5726 5729 5732 5735 5737 5739 5741 5743 5745 5747 5749 5750 5751 5751 5752 5752 5752 5752 5753 5753 5753 5754 5754 5755 5755 5755 5755 5756 5756 5756 5756 5756 5756 5756 5755 5755 5754 5753 5753 5752 5751 5750 5749 5748 5747 5745 5743 5742 5740 5739 5738 5738 5737 5735 5734 5733 5732 5731 5729
5652 5655 5658 5660 5662 5665 5669 5673 5677 5681 5685 5688 5690 5693 5696 5699 5703 5706 5708 5710 5711 5713 5713 5714 5716 5719 5721 5723 5727 5730 5732 5734 5737 5739 5740 5742 5744 5745 5746 5747 5748 5748 5748 5749 5749 5749 5750 5750 5751 5751 5751 5752 5752 5752 5753 5753 5753 5753 5753 5753 5753 5752 5752 5751 5751 5750 5749 5748 5747 5746 5745 5744 5743 5741 5739 5738 5736 5735 5735 5734 5733 5732 5731 5730 5729 5728
5650 5653 5657 5659 5662 5664 5667 5671 5676 5680 5683 5685 5688 5690 5693 5696 5700 5702 5703 5705 5707 5708 5709 5712 5714 5716 5718 5721 5724 5727 5729 5731 5733 5735 5737 5738 5740 5741 5742 5743 5744 5744 5745 5745 5746 5746 5747 5747 5748 5748 5748 5749 5749 5749 5749 5749 5750 5750 5750 5750 5750 5749 5749 5748 5748 5747 5746 5745 5744 5743 5743 5742 5741 5739 5737 5736 5734 5733 5732 5732 5731 5730 5729 5729 5728 5727
5649 5652 5655 5658 5661 5664 5667 5670 5673 5676 5678 5681 5684 5686 5689 5692 5695 5697 5699 5701 5704 5706 5708 5710 5712 5714 5716 5719 5722 5724 5726 5728 5730 5731 5733 5735 5736 5737 5739 5740 5741 5741 5742 5742 5743 5743 5744 5744 5745 5745 5745 5746 5746 5746 5746 5746 5746 5746 5747 5747 5746 5746 5746 5745 5745 5744 5743 5742 5741 5741 5740 5739 5738 5737 5735 5734 5732 5731 5730 5729 5729 5728 5727 5726 5726 5725
5648 5651 5654 5657 5660 5663 5666 5668 5671 5674 5677 5679 5681 5683 5685 5688 5691 5694 5697 5700 5702 5705 5707 5709 5711 5713 5715 5717 5719 5722 5723 5725 5727 5729 5730 5732 5733 5734 5735 5737 5738 5738 5739 5739 5740 5740 5741 5741 5742 5742 5742 5743 5743 5742 5742 5743 5743 5743 5743 5743 5743 5743 5742 5742 5741 5741 5740 5739 5739 5738 5737 5737 5736 5735 5733 5732 5730 5729 5727 5727 5726 5726 5725 5724 5723 5723
5647 5650 5653 5656 5659 5662 5665 5667 5670 5674 5676 5677 5679 5682 5685 5687 5690 5693 5695 5698 5701 5703 5705 5708 5710 5713 5714 5716 5718 5720 5721 5723 5725 5726 5727 5729 5730 5731 5733 5734 5735 5736 5736 5736 5737 5737 5738 5738 5739 5739 5739 5739 5739 5739 5739 5739 5739 5739 5739 5739 5739 5739 5739 5738 5738 5737 5737 5736 5735 5735 5734 5734 5733 5732 5731 5730 5728 5727 5726 5724 5723 5723 5722 5722 5721 5720
5647 5650 5653 5655 5658 5661 5664 5667 5669 5671 5672 5674 5677 5681 5684 5687 5689 5692 5695 5697 5700 5702 5705 5707 5709 5711 5712 5714 5716 5718 5719 5721 5722 5724 5725 5726 5728 5729 5730 5731 5733 5733 5734 5734 5734 5735 5735 5735 5735 5735 5735 5735 5735 5736 5736 5735 5735 5735 5735 5735 5735 5735 5735 5734 5734 5733 5733 5732 5732 5731 5730 5730 5729 5729 5728 5727 5726 5724 5723 5722 5721 5720 5719 5718 5718 5718
5648 5650 5651 5654 5657 5661 5664 5666 5667 5668 5670 5673 5677 5680 5683 5686 5689 5692 5694 5696 5699 5702 5704 5706 5707 5709 5711 5712 5714 5715 5717 5718 5720 5721 5723 5724 5725 5726 5728 5729 5730 5731 5731 5731 5732 5732 5732 5732 5732 5732 5732 5732 5732 5732 5732 5732 5732 5732 5731 5731 5731 5731 5731 5730 5730 5729 5729 5728 5728 5727 5726 5726 5725 5725 5724 5723 5722 5721 5720 5719 5718 5717 5716 5715 5714 5714
5647 5649 5650 5653 5656 5659 5662 5664 5665 5667 5670 5673 5677 5680 5683 5686 5689 5691 5693 5695 5697 5700 5702 5704 5705 5707 5709 5710 5711 5713 5714 5716 5717 5718 5720 5721 5722 5724 5725 5726 5727 5728 5728 5729 5729 5729 5729 5729 5729 5729 5728 5728 5728 5728 5728 5728 5728 5728 5728 5727 5727 5727 5727 5726 5726 5725 5725 5724 5723 5723 5722 5721 5721 5720 5720 5719 5718 5717 5716 5715 5714 5713 5712 5711 5711 5710
5646 5648 5650 5653 5655 5658 5660 5662 5664 5667 5670 5673 5676 5679 5682 5684 5686 5689 5691 5693 5696 5698 5700 5702 5703 5705 5706 5708 5709 5710 5712 5713 5714 5716 5717 5718 5720 5721 5722 5723 5724 5725 5725 5726 5726 5726 5726 5726 5726 5725 5725 5725 5724 5724 5724 5724 5724 5724 5724 5723 5723 5723 5722 5722 5721 5721 5721 5720 5719 5718 5718 5717 5716 5716 5715 5715 5714 5713 5712 5712 5711 5710 5709 5708 5707 5706
5645 5647 5650 5652 5655 5657 5659 5661 5664 5666 5669 5672 5675 5678 5680 5683 5685 5688 5690 5692 5693 5695 5697 5699 5701 5702 5704 5705 5706 5707 5709 5710 5711 5713 5715 5716 5717 5718 5719 5720 5721 5721 5722 5722 5723 5723 5723 5723 5722 5722 5722 5721 5721 5721 5720 5720 5720 5720 5720 5719 5719 5718 5718 5717 5717 5716 5716 5715 5715 5714 5713 5713 5712 5711 5711 5710 5710 5709 5708 5708 5707 5706 5705 5704 5703 5702
5644 5646 5649 5651 5654 5656 5658 5662 5664 5665 5667 5670 5673 5676 5678 5681 5683 5686 5688 5689 5691 5693 5694 5696 5698 5700 5701 5702 5704 5705 5706 5707 5709 5710 5712 5713 5714 5715 5716 5717 5717 5718 5718 5719 5719 5719 5719 5719 5719 5718 5718 5718 5717 5717 5717 5716 5716 5715 5715 5715 5714 5714 5713 5712 5712 5711 5711 5710 5710 5709 5709 5708 5707 5706 5706 5705 5705 5704 5704 5703 5702 5702 5701 5700 5699 5698
5643 5646 5648 5650 5652 5654 5657 5660 5662 5663 5666 5670 5672 5674 5676 5679 5681 5683 5684 5686 5688 5690 5692 5694 5695 5697 5698 5700 5701 5702 5703 5705 5706 5707 5708 5709 5711 5712 5712 5713 5714 5714 5715 5715 5715 5715 5715 5715 5715 5715 5714 5714 5714 5713 5713 5712 5712 5711 5710 5710 5709 5709 5708 5707 5707 5706 5706 5705 5704 5704 5703 5702 5701 5701 5700 5700 5699 5699 5699 5698 5698 5697 5696 5695 5694 5693
5643 5645 5648 5650 5652 5654 5656 5658 5659 5662 5665 5668 5670 5672 5675 5677 5679 5679 5681 5683 5686 5688 5690 5691 5693 5694 5696 5697 5698 5700 5701 5702 5703 5704 5705 5706 5708 5708 5709 5709 5710 5710 5710 5711 5711 5712 5711 5711 5711 5711 5710 5710 5710 5709 5709 5708 5707 5707 5706 5705 5705 5704 5703 5703 5702 5702 5701 5700 5699 5698 5697 5697 5696 5695 5695 5694 5694 5694 5693 5693 5693 5692 5691 5690 5689 5689
5642 5645 5647 5649 5651 5653 5655 5656 5658 5661 5664 5666 5668 5671 5673 5674 5675 5676 5678 5682 5685 5686 5687 5689 5691 5692 5693 5694 5696 5697 5698 5699 5700 5701 5702 5703 5704 5705 5705 5706 5706 5706 5706 5707 5707 5707 5707 5707 5706 5706 5706 5706 5705 5705 5705 5704 5703 5703 5702 5701 5700 5699 5699 5698 5697 5697 5696 5695 5694 5693 5692 5691 5690 5689 5688 5688 5688 5688 5687 5687 5687 5686 5686 5685 5684 5684
5641 5644 5646 5647 5649 5651 5653 5654 5656 5659 5661 5664 5666 5668 5669 5671 5673 5675 5678 5681 5683 5684 5685 5686 5688 5689 5690 5691 5693 5694 5695 5696 5697 5698 5699 5700 5701 5701 5701 5702 5702 5702 5703 5703 5703 5703 5703 5703 5702 5702 5701 5701 5701 5701 5700 5700 5699 5698 5697 5696 5695 5694 5694 5693 5692 5692 5691 5690 5689 5688 5686 5685 5685 5683 5682 5681 5681 5681 5680 5680 5680 5680 5680 5679 5679 5678
5641 5642 5644 5646 5648 5650 5651 5652 5655 5658 5660 5662 5664 5666 5668 5670 5672 5673 5675 5677 5679 5681 5682 5683 5685 5686 5687 5688 5690 5691 5692 5692 5693 5694 5695 5696 5697 5697 5698 5698 5698 5698 5699 5699 5699 5699 5699 5699 5698 5697 5697 5697 5696 5696 5696 5696 5695 5694 5693 5692 5691 5690 5689 5688 5687 5686 5685 5684 5683 5682 5681 5680 5679 5678 5676 5675 5674 5673 5673 5673 5673 5673 5673 5673 5673 5672
5640 5642 5644 5646 5647 5648 5650 5652 5655 5657 5658 5660 5662 5664 5666 5667 5669 5671 5672 5674 5676 5677 5679 5680 5681 5682 5684 5685 5686 5687 5688 5689 5690 5691 5692 5692 5693 5693 5693 5694 5694 5694 5695 5695 5695 5695 5695 5695 5694 5694 5693 5693 5693 5692 5691 5691 5690 5689 5688 5687 5686 5685 5684 5683 5681 5680 5679 5678 5676 5675 5674 5674 5673 5672 5670 5669 5667 5666 5666 5665 5665 5665 5665 5665 5666 5665
5639 5642 5643 5644 5645 5647 5649 5651 5653 5654 5656 5658 5660 5662 5663 5665 5667 5668 5670 5671 5673 5675 5676 5677 5678 5680 5681 5682 5683 5684 5685 5686 5686 5687 5688 5689 5689 5689 5689 5690 5690 5690 5691 5691 5691 5691 5691 5691 5691 5690 5690 5689 5689 5688 5687 5686 5685 5684 5683 5682 5681 5680 5678 5677 5675 5674 5673 5671 5670 5668 5667 5666 5665 5665 5663 5662 5661 5660 5659 5658 5658 5658 5658 5658 5658 5658
5638 5640 5641 5643 5644 5645 5647 5649 5651 5653 5655 5656 5658 5660 5661 5663 5664 5666 5667 5669 5670 5671 5673 5674 5675 5677 5678 5679 5680 5681 5682 5682 5683 5684 5685 5685 5685 5686 5686 5686 5686 5687 5688 5688 5688 5688 5688 5688 5687 5687 5686 5686 5685 5684 5683 5682 5681 5679 5678 5677 5676 5674 5673 5671 5669 5668 5666 5665 5663 5662 5660 5659 5658 5657 5656 5654 5654 5653 5652 5652 5651 5651 5651 5650 5650 5651
5636 5638 5639 5641 5643 5644 5645 5648 5649 5651 5652 5654 5656 5657 5659 5660 5662 5663 5664 5666 5667 5668 5670 5671 5672 5673 5675 5676 5677 5678 5679 5679 5680 5681 5681 5682 5682 5682 5683 5683 5684 5684 5684 5685 5685 5685 5685 5685 5684 5684 5683 5682 5681 5680 5679 5678 5676 5675 5674 5672 5671 5669 5667 5665 5664 5662 5660 5658 5656 5654 5653 5651 5650 5649 5648 5647 5645 5645 5644 5644 5644 5644 5644 5643 5643 5643
5634 5636 5637 5639 5641 5642 5643 5645 5647 5648 5650 5652 5653 5655 5656 5658 5659 5660 5662 5663 5665 5666 5667 5668 5669 5670 5672 5673 5674 5675 5676 5676 5677 5678 5678 5679 5679 5680 5680 5681 5681 5681 5682 5682 5682 5682 5682 5681 5681 5680 5680 5679 5678 5677 5675 5674 5673 5671 5669 5668 5666 5664 5662 5660 5658 5656 5653 5651 5649 5647 5645 5644 5642 5641 5640 5639 5638 5636 5635 5635 5635 5635 5635 5636 5636 5636
5632 5633 5635 5637 5638 5639 5641 5643 5644 5646 5647 5649 5650 5652 5653 5655 5656 5657 5659 5660 5662 5663 5664 5665 5667 5668 5669 5670 5671 5672 5673 5674 5675 5675 5676 5676 5677 5678 5678 5678 5679 5679 5679 5679 5679 5679 5679 5678 5678 5677 5676 5676 5675 5673 5672 5670 5669 5667 5665 5663 5661 5659 5657 5654 5652 5650 5647 5645 5642 5640 5638 5636 5634 5633 5632 5631 5630 5629 5627 5627 5626 5626 5626 5626 5627 5628
5630 5631 5633 5634 5636 5637 5639 5640 5642 5644 5645 5646 5648 5649 5650 5652 5653 5655 5656 5657 5659 5660 5661 5663 5664 5665 5666 5667 5668 5669 5670 5671 5672 5673 5673 5674 5675 5675 5675 5676 5676 5676 5676 5676 5677 5676 5676 5675 5675 5674 5673 5673 5672 5670 5669 5668 5666 5664 5662 5660 5658 5655 5653 5650 5647 5645 5642 5639 5637 5634 5632 5630 5628 5626 5624 5623 5622 5621 5620 5620 5619 5618 5618 5618 5618 5620